Flag for Italy Weather past 2 weeks in Palermo, Italy

Now
75 °F

Clear.


Feels Like: 76 °F
Forecast: 72 / 87 °F
Wind: 5 mph from Southeast

Location: Palermo / Punta Raisi

Current Time: Sep 2, 2015 at 7:08:50 AM

Latest Report: Sep 2, 2015 at 6:20 AM


Visibility: 10 mi

Pressure: 29.95 "Hg

Humidity: 78%

Dew point: 68 °F

Location of PalermoLocation

Historic Weather in Palermo — Graph

°F

Palermo temperature yesterday

Maximum temperature yesterday: 84 °F (at 3:50 PM)
Minimum temperature yesterday: 75 °F (at 1:50 AM)
Average temperature yesterday: 80 °F

Past Weeks' High & Low Weather Summary

 TemperatureHumidityPressure
High90 °F (Aug 24, 2:20 PM)89% (Aug 26, 2:20 AM)30.18 "Hg (Aug 26, 2:20 AM)
Low70 °F (Aug 18, 6:20 AM)29% (Aug 25, 1:20 AM)29.89 "Hg (Aug 18, 6:20 PM)
Average80 °F67%30.03 "Hg
* Reported Aug 18 5:50 AM — Sep 2 5:20 AM, Palermo, Weather by CustomWeather, © 2015

Note: Actual official high and low records may vary slightly from our data, if they occured in-between our weather recording intervals... More about our weather records

Advertising

Palermo weather history for previous 24 hours

 ConditionsComfort  
Time TempWeatherWind HumidityBarometerVisibility
5:20 AM
Wed, Sep 2
73 °FClear.6 mph78%29.95 "Hg10 mi
4:20 AM73 °FClear.6 mph78%29.95 "Hg10 mi
3:50 AM72 °FClear.5 mph69%29.95 "Hg10 mi
3:20 AM75 °FClear.6 mph78%29.95 "Hg10 mi
2:50 AM73 °FClear.5 mph78%29.95 "Hg10 mi
2:20 AM73 °FClear.6 mph74%29.95 "Hg10 mi
1:50 AM73 °FClear.7 mph78%29.95 "Hg10 mi
1:20 AM75 °FClear.6 mph74%29.95 "Hg10 mi
12:50 AM75 °FClear.7 mph78%29.95 "Hg10 mi
11:20 PM
Tue, Sep 1
77 °FPassing clouds.5 mph79%29.95 "HgN/A
10:50 PM77 °FPassing clouds.3 mph79%29.98 "HgN/A
10:20 PM79 °FPassing clouds.1 mph79%29.98 "HgN/A
9:50 PM79 °FClear.1 mph79%29.98 "Hg10 mi
9:20 PM79 °FClear.3 mph79%29.98 "Hg10 mi
8:50 PM81 °FPassing clouds.3 mph74%29.98 "HgN/A
8:20 PM81 °FSunny.5 mph79%29.98 "Hg10 mi
7:50 PM81 °FSunny.5 mph74%29.95 "Hg10 mi
7:20 PM81 °FSunny.3 mph74%29.95 "Hg10 mi
6:50 PM82 °FSunny.6 mph70%29.98 "Hg10 mi
6:20 PM82 °FSunny.3 mph74%29.98 "Hg10 mi
5:50 PM82 °FSunny.5 mph70%29.98 "Hg10 mi
5:20 PM82 °FSunny.3 mph70%29.98 "Hg10 mi
4:50 PM82 °FSunny.5 mph74%29.98 "Hg10 mi
3:50 PM84 °FSunny.6 mph70%29.98 "Hg10 mi
3:20 PM82 °FPassing clouds.8 mph74%29.98 "HgN/A
2:50 PM82 °FPassing clouds.8 mph74%29.98 "HgN/A
2:20 PM82 °FPassing clouds.8 mph74%29.98 "HgN/A
1:50 PM82 °FPassing clouds.8 mph74%30.01 "HgN/A
1:20 PM82 °FPassing clouds.9 mph70%30.01 "HgN/A
12:20 PM82 °FPassing clouds.9 mph74%30.01 "HgN/A
11:50 AM82 °FPassing clouds.8 mph70%30.01 "HgN/A
11:20 AM82 °FPassing clouds.5 mph70%30.01 "HgN/A
10:50 AM81 °FPassing clouds.5 mph70%30.01 "HgN/A
10:20 AM81 °FPassing clouds.5 mph70%30.01 "HgN/A
9:50 AM81 °FPassing clouds.6 mph70%30.01 "HgN/A
9:20 AM79 °FSunny.5 mph70%29.98 "Hg10 mi
8:50 AM81 °FPassing clouds.5 mph66%29.98 "HgN/A
8:20 AM79 °FSunny.7 mph65%29.98 "Hg10 mi
7:50 AM75 °FSunny.7 mph69%29.98 "Hg10 mi
7:20 AM77 °FClear.8 mph69%29.98 "Hg10 mi
Weather by CustomWeather, © 2015

See weather overviewHow to use our weather pages